This is the latest recevied weather packets stored in our database for station/object GW1490. If no packets are shown the sender has not sent any weather packets the latest 10 day(s).
| Time | Temp. | Humidity | Pressure | Rain* | Wind** | Luminosity | Snow |
|---|---|---|---|---|---|---|---|
| 1777646530 | 13.33° C | 65% | 995.2 hPa | 0 mm | - | - | - |
| 1777645821 | 13.33° C | 69% | 995.5 hPa | 0 mm | - | - | - |
| 1777645450 | 13.33° C | 74% | 995.2 hPa | 0 mm | - | - | - |
| 1777643291 | 10.56° C | 85% | 995.9 hPa | 0 mm | - | - | - |
| 1777639339 | 6.11° C | 99% | 995.5 hPa | 0 mm | - | - | - |
| 1777638989 | 6.11° C | 99% | 995.9 hPa | 0 mm | - | - | - |
| 1777638616 | 5.56° C | 99% | 995.9 hPa | 0 mm | - | - | - |
| 1777630365 | 3.89° C | 99% | 996.6 hPa | 0 mm | - | - | - |
| 1777629263 | 3.89° C | 99% | 996.6 hPa | 0 mm | - | - | - |
| 1777628901 | 3.89° C | 99% | 996.9 hPa | 0 mm | - | - | - |
| 1777626758 | 4.44° C | 99% | 996.9 hPa | 0 mm | - | - | - |
| 1777625668 | 4.44° C | 99% | 996.6 hPa | 0 mm | - | - | - |
| 1777624612 | 4.44° C | 99% | 996.9 hPa | 0 mm | - | - | - |
| 1777624253 | 4.44° C | 99% | 996.6 hPa | 0 mm | - | - | - |
| 1777623876 | 4.44° C | 99% | 996.9 hPa | 0 mm | - | - | - |
| 1777623144 | 4.44° C | 99% | 996.9 hPa | 0 mm | - | - | - |
| 1777621373 | 4.44° C | 99% | 996.6 hPa | 0 mm | - | - | - |
| 1777620987 | 4.44° C | 99% | 996.9 hPa | 0 mm | - | - | - |
| 1777618453 | 4.44° C | 99% | 996.9 hPa | 0 mm | - | - | - |
| 1777615948 | 4.44° C | 99% | 997.6 hPa | 0 mm | - | - | - |
| 1777613420 | 4.44° C | 99% | 997.6 hPa | 0 mm | - | - | - |
| 1777605170 | 5.56° C | 99% | 998.3 hPa | 0 mm | - | - | - |
| 1777604801 | 5.56° C | 99% | 998.3 hPa | 0 mm | - | - | - |
| 1777602278 | 6.67° C | 97% | 998.3 hPa | 0 mm | - | - | - |
| 1777600495 | 7.22° C | 94% | 997.9 hPa | 0 mm | - | - | - |
* Rain since midnight (hover to see other rain measurements)
** Current wind speed in m/s (hover to see current wind gust speed)